User: anonymous   Login
Location: Unspecified
(0.0000°N, 0.0000°E)
Time: 17:06:37
(UTC+00:00)
Language:

LAPAN A2 - Orbit

View from above orbital plane
View from above orbital plane
View from above satellite
View from above satellite

Ground track
Ground track

The orbit data is extracted from the following two-line orbital elements,

1 40931U 15052B   17265.03870636  .00000720  00000-0  11348-4 0  9994
2 40931   5.9974 262.1331 0012571 176.9559 183.0666 14.76543350107308
Epoch (UTC): 22 September 2017 00:55:44
Eccentricity: 0.0012571
inclination: 5.9974°
perigee height: 631 km
apogee height: 649 km
right ascension of ascending node: 262.1331°
argument of perigee: 176.9559°
revolutions per day: 14.76543350
mean anomaly at epoch: 183.0666°
orbit number at epoch: 10730

The dashed part of the orbit path shows where the satellite is in the earth's shadow,  

DLR